Flag for U.S.A. Weather past 2 weeks in Alpena, Michigan, U.S.A.

Now
22 °F

Passing clouds.


Feels Like: 22 °F
Forecast: 19 / 31 °F
Wind: No wind

Location: Alpena County Regional Airport

Current Time: Dec 21, 2014 at 3:34:08 AM

Latest Report: Dec 21, 2014 at 2:54 AM


Visibility: 10 mi

Pressure: 30.31 "Hg

Humidity: 92%

Dew point: 20 °F

Location of AlpenaLocation

Historic Weather in Alpena — Graph

°F

Alpena temperature yesterday

Maximum temperature yesterday: 29 °F (at 1:54 PM)
Minimum temperature yesterday: 8 °F (at 7:54 AM)
Average temperature yesterday: 19 °F

Past Weeks' High & Low Weather Summary

 TemperatureHumidityPressure
High47 °F (Dec 15, 12:54 PM)100% (Dec 9, 12:04 AM)30.79 "Hg (Dec 9, 12:04 AM)
Low8 °F (Dec 20, 7:54 AM)30% (Dec 15, 5:54 AM)29.71 "Hg (Dec 16, 2:54 PM)
Average30 °F85%30.18 "Hg
* Reported Dec 6 1:54 AM — Dec 21 1:54 AM, Alpena, Weather by CustomWeather, © 2014

Note: Actual official high and low records may vary slightly from our data, if they occured in-between our weather recording intervals... More about our weather records

Advertising

Alpena weather history for previous 24 hours

 ConditionsComfort  
Time TempWeatherWind HumidityBarometerVisibility
1:54 AM
Dec 21
24 °FOvercast.3 mph88%30.29 "Hg10 mi
12:54 AM23 °FOvercast.No wind92%30.29 "Hg10 mi
11:54 PM
Dec 20
22 °FOvercast.No wind92%30.30 "Hg10 mi
10:54 PM23 °FOvercast.No wind88%30.31 "Hg10 mi
9:54 PM24 °FOvercast.No wind88%30.30 "Hg10 mi
8:54 PM25 °FOvercast.No wind88%30.31 "Hg10 mi
7:54 PM26 °FOvercast.No wind81%30.33 "Hg10 mi
6:54 PM25 °FOvercast.No wind85%30.33 "Hg10 mi
5:54 PM25 °FPassing clouds.No wind81%30.32 "Hg10 mi
4:54 PM27 °FOvercast.3 mph75%30.31 "Hg10 mi
3:54 PM28 °FSunny.3 mph72%30.30 "Hg10 mi
2:54 PM29 °FPassing clouds.No wind72%30.29 "Hg10 mi
1:54 PM29 °FSunny.No wind72%30.30 "Hg10 mi
12:54 PM27 °FSunny.No wind78%30.32 "Hg10 mi
11:54 AM26 °FSunny.No wind81%30.33 "Hg10 mi
10:54 AM22 °FSunny.No wind92%30.35 "Hg10 mi
9:54 AM18 °FSunny.No wind88%30.36 "Hg10 mi
8:54 AM12 °FSunny.No wind88%30.36 "Hg10 mi
7:54 AM8 °FClear.No wind87%30.36 "Hg10 mi
6:54 AM9 °FClear.No wind84%30.35 "Hg10 mi
5:54 AM10 °FClear.No wind84%30.34 "Hg10 mi
4:54 AM10 °FClear.No wind88%30.34 "Hg10 mi
3:54 AM10 °FClear.No wind92%30.33 "Hg10 mi
Weather by CustomWeather, © 2014

See weather overviewHow to use our weather pages